This demonstration page uses our WeatherBlox Daily Observations layout. Learn more.

Left ArrowRight Arrow

Hourly Observations for July 24, 2022

Temp ( °F °C ) Dew Point ( °F °C ) Humidity (%) Winds ( mph kmh ) Pressure ( in mb ) Visibility ( mi km ) Precip ( " mm )
12:52 am 00:52 Mostly Cloudy 76 24.4 73 22.8 91 91 WNW 3 6 29.80 1009 10 16 0.00 0.00
1:52 am 01:52 Mostly Clear 75 23.9 72 22.2 90 90 NW 6 9 29.80 1009 10 16 0.00 0.00
2:52 am 02:52 Partly Cloudy 76 24.4 73 22.8 91 91 NNW 10 17 29.83 1010 10 16 0.00 0.00
3:52 am 03:52 Mostly Cloudy 76 24.4 74 23.3 94 94 N 14 22 29.84 1011 10 16 0.00 0.00
4:52 am 04:52 Mostly Cloudy 75 23.9 71 21.7 88 88 N 13 20 29.87 1011 10 16 0.00 0.00
5:52 am 05:52 Mostly Cloudy 73 22.8 69 20.6 87 87 N 12 19 29.91 1013 10 16 0.00 0.00
6:52 am 06:52 Mostly Cloudy 72 22.2 69 20.6 91 91 N 3 6 29.94 1014 10 16 0.00 0.00
7:52 am 07:52 Mostly Cloudy 74 23.3 69 20.6 85 85 NNW 10 17 29.96 1015 10 16 0.00 0.00
8:52 am 08:52 Mostly Cloudy 76 24.4 68 20 77 77 N 10 17 30.00 1016 10 16 0.00 0.00
9:52 am 09:52 Mostly Cloudy 79 26.1 65 18.3 62 62 NNE 14 22 29.98 1015 10 16 0.00 0.00
10:52 am 10:52 Mostly Cloudy 82 27.8 63 17.2 53 53 N 15 24 29.98 1015 10 16 0.00 0.00
11:52 am 11:52 Mostly Cloudy 82 27.8 61 16.1 49 49 N 13 20 30.01 1016 10 16 0.00 0.00
12:52 pm 12:52 Mostly Cloudy 85 29.4 61 16.1 45 45 VRB 6 9 30.01 1016 10 16 0.00 0.00
1:52 pm 13:52 Mostly Cloudy 86 30 59 15 40 40 NNW 15 24 30.01 1016 10 16 0.00 0.00
2:52 pm 14:52 Mostly Cloudy 86 30 57 13.9 37 37 NNW 14 22 30.00 1016 10 16 0.00 0.00
3:52 pm 15:52 Mostly Cloudy 88 31.1 57 13.9 35 35 N 14 22 30.00 1016 10 16 0.00 0.00
4:52 pm 16:52 Partly Cloudy 87 30.6 56 13.3 35 35 NNW 13 20 30.01 1016 10 16 0.00 0.00
5:52 pm 17:52 Partly Cloudy 86 30 57 13.9 37 37 NNE 10 17 30.01 1016 10 16 0.00 0.00
6:52 pm 18:52 Partly Cloudy 85 29.4 57 13.9 39 39 N 5 7 30.01 1016 10 16 0.00 0.00
7:52 pm 19:52 Partly Cloudy 81 27.2 60 15.6 49 49 NE 8 13 30.01 1016 10 16 0.00 0.00
8:52 pm 20:52 Partly Cloudy 78 25.6 60 15.6 54 54 NE 6 9 30.01 1016 10 16 0.00 0.00
9:52 pm 21:52 Partly Cloudy 71 21.7 63 17.2 76 76 NNW 6 9 30.03 1017 10 16 0.00 0.00
10:52 pm 22:52 Partly Cloudy 68 20 62 16.7 81 81 NNW 5 7 30.04 1017 10 16 0.00 0.00
11:52 pm 23:52 Mostly Cloudy 69 20.6 62 16.7 78 78 N 7 11 30.03 1017 10 16 0.00 0.00

Powered by AerisWeather